Date,TemperatureHighF,TemperatureAvgF,TemperatureLowF,DewpointHighF,DewpointAvgF,DewpointLowF,HumidityHigh,HumidityAvg,HumidityLow,PressureMaxIn,PressureMinIn,WindSpeedMaxMPH,WindSpeedAvgMPH,GustSpeedMaxMPH,PrecipitationSumIn
2013-2-1,0.0,0.0,0.0,46.1,46.1,46.1,0,0,100,29.82,29.26,0,0,0,0.14
2013-2-2,70.2,29.3,0.0,69.9,54.6,42.4,99,45,99,30.09,29.80,1,0,2,0.14
2013-2-3,67.5,67.5,67.5,67.2,67.2,67.2,99,99,99,29.92,29.63,0,0,1,0.00
2013-2-4,67.5,67.5,67.5,67.2,67.2,67.2,99,99,99,29.78,29.61,0,0,1,0.00
2013-2-5,67.5,67.5,67.5,67.2,67.2,67.2,99,99,99,29.90,29.77,0,0,1,0.00
2013-2-6,67.5,67.5,67.5,67.2,67.2,67.2,99,99,99,30.20,29.78,0,0,1,0.00
2013-2-7,67.5,67.5,67.5,67.2,67.2,67.2,99,99,99,30.40,30.19,0,0,1,0.00
2013-2-8,67.5,67.5,67.5,67.2,67.2,67.2,99,99,99,30.32,29.82,0,0,1,0.00
2013-2-9,67.5,67.5,67.5,67.2,67.2,67.2,99,99,99,30.18,29.80,0,0,1,0.00
2013-2-10,67.5,67.5,67.5,67.2,67.2,67.2,99,99,99,30.32,30.18,0,0,1,0.00
2013-2-11,67.5,67.5,67.5,67.2,67.2,67.2,99,99,99,30.20,29.55,0,0,1,0.00
2013-2-12,67.5,67.5,67.5,67.2,67.2,67.2,99,99,99,29.77,29.54,0,0,1,0.00
2013-2-13,67.5,67.5,67.5,67.2,67.2,67.2,99,99,99,29.77,29.69,0,0,1,0.00
2013-2-14,67.5,67.5,67.5,67.2,67.2,67.2,99,99,99,29.90,29.67,0,0,1,0.00
2013-2-15,67.5,67.5,67.5,67.2,67.2,67.2,99,99,99,29.90,29.81,0,0,1,0.00
2013-2-16,67.5,67.5,67.5,67.2,67.2,67.2,99,99,99,29.91,29.78,0,0,1,0.00
2013-2-17,67.5,67.5,67.5,67.2,67.2,67.2,99,99,99,29.78,29.50,0,0,1,0.00
2013-2-18,67.5,67.5,67.5,67.2,67.2,67.2,99,99,99,30.03,29.65,0,0,1,0.00
2013-2-19,67.5,67.5,67.5,67.2,67.2,67.2,99,99,99,30.04,29.54,0,0,1,0.00
2013-2-20,67.5,67.5,67.5,67.2,67.2,67.2,99,99,99,29.65,29.51,0,0,1,0.00
2013-2-21,67.5,67.5,67.5,67.2,67.2,67.2,99,99,99,31.99,29.64,0,0,1,0.00
2013-2-22,67.5,67.5,67.5,67.2,67.2,67.2,99,99,99,30.32,30.19,0,0,1,0.00
2013-2-23,70.2,66.7,42.6,69.9,66.4,42.4,99,99,99,29.96,29.73,1,0,2,0.00
2013-2-24,67.5,67.5,67.5,67.2,67.2,67.2,99,99,99,29.73,29.58,0,0,1,0.00
2013-2-25,67.5,67.5,67.5,67.2,67.2,67.2,99,99,99,30.02,29.73,0,0,1,0.00
2013-2-26,67.5,67.5,67.5,67.2,67.2,67.2,99,99,99,30.11,29.95,0,0,1,0.00
2013-2-27,67.5,67.5,67.5,67.2,67.2,67.2,99,99,99,29.95,29.46,0,0,1,0.00
2013-2-28,67.5,67.5,67.5,67.2,67.2,67.2,99,99,99,29.47,29.40,0,0,1,0.00